Satellite-Ground Cal/Val Region Overpasses Predictions

Prediction of Satellite NPP Overpassing Cal/Val Region: PacNW

Region Location: (Latitude: 10.00, Longitude: 139.50) to (Latitude: 22.70, Longitude: 165.60).

Table of predicted overpasses for the next 14.0 days since TLE Epoch: 12/30/2017
Interval Starting Time Starting Location Ending Time Ending Location
1 12/30/2017 14:46:04 ( 22.66, 163.38) 12/30/2017 14:49:39 ( 10.04, 160.38)
2 12/31/2017 03:36:39 ( 10.06, 145.53) 12/31/2017 03:40:14 ( 22.68, 142.53)
3 12/31/2017 14:30:03 ( 12.04, 165.60) 12/31/2017 14:30:37 ( 10.04, 165.14)
4 12/31/2017 16:08:31 ( 22.66, 142.76) 12/31/2017 16:12:06 ( 10.04, 139.76)
5 01/01/2018 03:17:36 ( 10.05, 150.29) 01/01/2018 03:21:11 ( 22.67, 147.29)
6 01/01/2018 15:49:29 ( 22.66, 147.52) 01/01/2018 15:53:04 ( 10.04, 144.52)
7 01/02/2018 02:58:34 ( 10.05, 155.05) 01/02/2018 03:02:09 ( 22.67, 152.05)
8 01/02/2018 15:30:27 ( 22.67, 152.28) 01/02/2018 15:34:02 ( 10.05, 149.28)
9 01/03/2018 02:39:31 ( 10.04, 159.81) 01/03/2018 02:43:06 ( 22.67, 156.81)
10 01/03/2018 15:11:24 ( 22.67, 157.04) 01/03/2018 15:14:59 ( 10.05, 154.04)
11 01/04/2018 02:20:29 ( 10.04, 164.57) 01/04/2018 02:24:04 ( 22.66, 161.57)
12 01/04/2018 14:52:22 ( 22.67, 161.80) 01/04/2018 14:55:57 ( 10.05, 158.80)
13 01/05/2018 03:42:56 ( 10.05, 143.96) 01/05/2018 03:46:31 ( 22.67, 140.95)
14 01/05/2018 14:34:26 ( 18.75, 165.60) 01/05/2018 14:36:54 ( 10.06, 163.56)
15 01/05/2018 16:14:49 ( 22.67, 141.19) 01/05/2018 16:16:47 ( 15.75, 139.51)
16 01/06/2018 03:23:54 ( 10.04, 148.72) 01/06/2018 03:27:29 ( 22.67, 145.71)
17 01/06/2018 15:55:47 ( 22.67, 145.95) 01/06/2018 15:59:22 ( 10.05, 142.95)
18 01/07/2018 03:04:51 ( 10.04, 153.48) 01/07/2018 03:08:26 ( 22.66, 150.47)
19 01/07/2018 15:36:44 ( 22.67, 150.71) 01/07/2018 15:40:19 ( 10.05, 147.71)
20 01/08/2018 02:45:49 ( 10.04, 158.23) 01/08/2018 02:49:24 ( 22.66, 155.23)
21 01/08/2018 15:17:42 ( 22.68, 155.47) 01/08/2018 15:21:17 ( 10.06, 152.47)
22 01/09/2018 02:26:47 ( 10.04, 162.99) 01/09/2018 02:30:22 ( 22.66, 159.99)
23 01/09/2018 14:58:39 ( 22.68, 160.23) 01/09/2018 15:02:14 ( 10.06, 157.23)
24 01/10/2018 02:10:21 ( 19.26, 165.59) 01/10/2018 02:11:19 ( 22.66, 164.75)
25 01/10/2018 03:49:14 ( 10.04, 142.38) 01/10/2018 03:52:40 ( 22.14, 139.51)
26 01/10/2018 14:39:37 ( 22.68, 164.99) 01/10/2018 14:43:13 ( 10.00, 161.97)
27 01/10/2018 16:21:07 ( 22.67, 139.61) 01/10/2018 16:21:14 ( 22.26, 139.51)
28 01/11/2018 03:30:12 ( 10.04, 147.14) 01/11/2018 03:33:47 ( 22.67, 144.14)
29 01/11/2018 16:02:04 ( 22.67, 144.37) 01/11/2018 16:05:39 ( 10.05, 141.37)
30 01/12/2018 03:11:09 ( 10.04, 151.90) 01/12/2018 03:14:44 ( 22.67, 148.90)
31 01/12/2018 15:43:02 ( 22.67, 149.13) 01/12/2018 15:46:37 ( 10.05, 146.13)


NCC Satellite Cal/Val Overpasses Prediction Service
